Time,TemperatureF,DewpointF,PressureIn,WindDirection,WindDirectionDegrees,WindSpeedMPH,WindSpeedGustMPH,Humidity,HourlyPrecipIn,Conditions,Clouds,dailyrainin,SoftwareType,DateUTC
2013-09-20 00:11:00,55.0,52.0,29.72,North,0,0.0,0.0,88,0.00,,,0.00,,2013-09-20 07:11:00,
2013-09-20 00:22:00,54.0,51.0,29.72,North,0,0.0,0.0,88,0.00,,,0.00,,2013-09-20 07:22:00,
2013-09-20 00:52:00,54.0,51.0,29.71,North,0,0.0,0.0,89,0.00,,,0.00,,2013-09-20 07:52:00,
2013-09-20 01:11:00,54.0,51.0,29.71,North,0,0.0,0.0,89,0.00,,,0.00,,2013-09-20 08:11:00,
2013-09-20 01:21:00,54.0,51.0,29.71,North,0,0.0,0.0,89,0.00,,,0.00,,2013-09-20 08:21:00,
2013-09-20 01:52:00,53.0,50.0,29.70,North,0,0.0,0.0,90,0.00,,,0.00,,2013-09-20 08:52:00,
2013-09-20 02:22:00,53.0,50.0,29.70,North,0,0.0,1.0,90,0.00,,,0.00,,2013-09-20 09:22:00,
2013-09-20 02:43:00,53.0,50.0,29.70,North,0,0.0,0.0,91,0.00,,,0.00,,2013-09-20 09:43:00,
2013-09-20 02:53:00,53.0,50.0,29.69,North,0,0.0,0.0,91,0.00,,,0.00,,2013-09-20 09:53:00,
2013-09-20 03:12:00,53.0,50.0,29.69,North,0,0.0,2.0,91,0.00,,,0.00,,2013-09-20 10:12:00,
2013-09-20 03:23:00,53.0,50.0,29.68,North,0,0.0,1.0,91,0.00,,,0.00,,2013-09-20 10:23:00,
2013-09-20 03:53:00,52.0,49.0,29.68,North,0,0.0,0.0,91,0.00,,,0.00,,2013-09-20 10:53:00,
2013-09-20 04:11:00,52.0,49.0,29.68,North,0,0.0,0.0,91,0.00,,,0.00,,2013-09-20 11:11:00,
2013-09-20 04:23:00,52.0,49.0,29.68,North,0,0.0,0.0,91,0.00,,,0.00,,2013-09-20 11:23:00,
2013-09-20 04:52:00,52.0,49.0,29.67,North,0,0.0,0.0,91,0.00,,,0.00,,2013-09-20 11:52:00,
2013-09-20 05:12:00,52.0,49.0,29.66,North,0,0.0,0.0,91,0.00,,,0.00,,2013-09-20 12:12:00,
2013-09-20 05:22:00,51.0,48.0,29.66,North,0,0.0,0.0,91,0.00,,,0.00,,2013-09-20 12:22:00,
2013-09-20 05:42:00,51.0,48.0,29.65,North,0,0.0,0.0,91,0.00,,,0.00,,2013-09-20 12:42:00,
2013-09-20 05:52:00,51.0,49.0,29.65,North,0,0.0,0.0,92,0.00,,,0.00,,2013-09-20 12:52:00,
2013-09-20 06:12:00,51.0,49.0,29.65,North,0,0.0,0.0,92,0.00,,,0.00,,2013-09-20 13:12:00,
2013-09-20 06:21:00,51.0,49.0,29.64,North,0,0.0,0.0,92,0.00,,,0.00,,2013-09-20 13:21:00,
2013-09-20 06:41:00,51.0,49.0,29.64,North,0,0.0,0.0,92,0.00,,,0.00,,2013-09-20 13:41:00,
2013-09-20 06:52:00,51.0,49.0,29.64,North,0,0.0,0.0,92,0.00,,,0.00,,2013-09-20 13:52:00,
2013-09-20 07:21:00,51.0,49.0,29.63,North,0,0.0,0.0,92,0.00,,,0.00,,2013-09-20 14:21:00,
2013-09-20 07:42:00,51.0,49.0,29.63,North,0,0.0,0.0,92,0.00,,,0.00,,2013-09-20 14:42:00,
2013-09-20 07:52:00,51.0,49.0,29.63,North,0,0.0,0.0,92,0.00,,,0.00,,2013-09-20 14:52:00,
2013-09-20 08:12:00,51.0,49.0,29.62,North,0,0.0,0.0,92,0.00,,,0.00,,2013-09-20 15:12:00,
2013-09-20 08:21:00,52.0,50.0,29.62,North,0,0.0,0.0,93,0.00,,,0.00,,2013-09-20 15:21:00,
2013-09-20 08:54:00,53.0,51.0,29.61,North,0,0.0,2.0,93,0.00,,,0.00,,2013-09-20 15:54:00,
2013-09-20 09:23:00,55.0,53.0,29.61,North,0,0.0,2.0,92,0.00,,,0.00,,2013-09-20 16:23:00,
2013-09-20 09:42:00,56.0,54.0,29.61,North,0,0.0,2.0,92,0.00,,,0.00,,2013-09-20 16:42:00,
2013-09-20 09:52:00,57.0,54.0,29.62,North,0,0.0,1.0,90,0.00,,,0.00,,2013-09-20 16:52:00,
2013-09-20 10:13:00,59.0,55.0,29.61,North,0,0.0,1.0,87,0.00,,,0.00,,2013-09-20 17:13:00,
2013-09-20 10:23:00,60.0,55.0,29.60,North,0,0.0,0.0,85,0.00,,,0.00,,2013-09-20 17:23:00,
2013-09-20 10:53:00,64.0,56.0,29.60,North,0,0.0,1.0,74,0.00,,,0.00,,2013-09-20 17:53:00,
2013-09-20 11:12:00,67.0,56.0,29.59,North,0,0.0,1.0,68,0.00,,,0.00,,2013-09-20 18:12:00,
2013-09-20 11:22:00,69.0,56.0,29.59,North,0,0.0,1.0,64,0.00,,,0.00,,2013-09-20 18:22:00,
2013-09-20 11:42:00,70.0,54.0,29.59,North,0,0.0,3.0,56,0.00,,,0.00,,2013-09-20 18:42:00,
2013-09-20 11:52:00,72.0,57.0,29.59,North,0,0.0,3.0,59,0.00,,,0.00,,2013-09-20 18:52:00,
2013-09-20 13:42:00,76.0,51.0,29.56,SSW,192,1.0,6.0,42,0.00,,,0.00,,2013-09-20 20:42:00,
2013-09-20 13:52:00,76.0,53.0,29.55,SW,233,1.0,7.0,45,0.00,,,0.00,,2013-09-20 20:52:00,
2013-09-20 14:21:00,76.0,51.0,29.55,SSW,197,2.0,6.0,42,0.00,,,0.00,,2013-09-20 21:21:00,
2013-09-20 14:54:00,75.0,55.0,29.54,West,261,2.0,9.0,49,0.00,,,0.00,,2013-09-20 21:54:00,
2013-09-20 15:14:00,75.0,55.0,29.54,WNW,300,2.0,5.0,49,0.00,,,0.00,,2013-09-20 22:14:00,
2013-09-20 15:23:00,75.0,56.0,29.54,West,267,2.0,7.0,51,0.00,,,0.00,,2013-09-20 22:23:00,
2013-09-20 15:53:00,74.0,55.0,29.53,West,271,2.0,6.0,51,0.00,,,0.00,,2013-09-20 22:53:00,
2013-09-20 16:12:00,73.0,54.0,29.53,West,271,1.0,7.0,51,0.00,,,0.00,,2013-09-20 23:12:00,
2013-09-20 16:22:00,73.0,53.0,29.53,West,268,2.0,7.0,50,0.00,,,0.00,,2013-09-20 23:22:00,
2013-09-20 16:53:00,72.0,53.0,29.53,WSW,250,2.0,4.0,52,0.00,,,0.00,,2013-09-20 23:53:00,
2013-09-20 17:11:00,71.0,53.0,29.53,WSW,253,1.0,4.0,53,0.00,,,0.00,,2013-09-21 00:11:00,
2013-09-20 17:21:00,71.0,53.0,29.53,West,268,1.0,4.0,53,0.00,,,0.00,,2013-09-21 00:21:00,
2013-09-20 17:42:00,71.0,54.0,29.53,SW,218,1.0,6.0,54,0.00,,,0.00,,2013-09-21 00:42:00,
2013-09-20 17:52:00,70.0,55.0,29.53,SW,231,1.0,6.0,58,0.00,,,0.00,,2013-09-21 00:52:00,
2013-09-20 18:12:00,69.0,54.0,29.54,SSW,200,1.0,6.0,58,0.00,,,0.00,,2013-09-21 01:12:00,
2013-09-20 18:22:00,69.0,55.0,29.54,SSW,201,2.0,6.0,60,0.00,,,0.00,,2013-09-21 01:22:00,
2013-09-20 18:52:00,67.0,54.0,29.55,North,0,0.0,4.0,63,0.00,,,0.00,,2013-09-21 01:52:00,
2013-09-20 19:12:00,66.0,53.0,29.57,WNW,295,1.0,6.0,63,0.00,,,0.00,,2013-09-21 02:12:00,
2013-09-20 19:22:00,65.0,53.0,29.57,West,276,0.0,6.0,65,0.00,,,0.00,,2013-09-21 02:22:00,
2013-09-20 19:42:00,64.0,52.0,29.57,West,276,1.0,2.0,66,0.00,,,0.00,,2013-09-21 02:42:00,
2013-09-20 19:52:00,63.0,52.0,29.58,North,0,0.0,4.0,67,0.00,,,0.00,,2013-09-21 02:52:00,
2013-09-20 20:22:00,63.0,53.0,29.58,North,0,0.0,1.0,69,0.00,,,0.00,,2013-09-21 03:22:00,
2013-09-20 20:54:00,61.0,54.0,29.60,North,0,0.0,0.0,78,0.00,,,0.00,,2013-09-21 03:54:00,
2013-09-20 21:14:00,60.0,54.0,29.60,North,0,0.0,0.0,81,0.00,,,0.00,,2013-09-21 04:14:00,
2013-09-20 21:24:00,59.0,54.0,29.61,North,0,0.0,0.0,84,0.00,,,0.00,,2013-09-21 04:24:00,
2013-09-20 21:54:00,58.0,54.0,29.61,North,0,0.0,0.0,86,0.00,,,0.00,,2013-09-21 04:54:00,
2013-09-20 22:12:00,58.0,54.0,29.60,North,0,0.0,0.0,88,0.00,,,0.00,,2013-09-21 05:12:00,
2013-09-20 22:23:00,58.0,54.0,29.60,North,0,0.0,0.0,88,0.01,,,0.01,,2013-09-21 05:23:00,
2013-09-20 22:43:00,58.0,55.0,29.60,North,0,0.0,0.0,89,0.01,,,0.01,,2013-09-21 05:43:00,
2013-09-20 22:52:00,57.0,54.0,29.59,North,0,0.0,0.0,89,0.01,,,0.01,,2013-09-21 05:52:00,
2013-09-20 23:12:00,57.0,54.0,29.59,North,0,0.0,0.0,89,0.01,,,0.01,,2013-09-21 06:12:00,
2013-09-20 23:22:00,57.0,54.0,29.59,North,0,0.0,0.0,90,0.00,,,0.01,,2013-09-21 06:22:00,
2013-09-20 23:42:00,57.0,54.0,29.60,North,0,0.0,0.0,90,0.00,,,0.01,,2013-09-21 06:42:00,
2013-09-20 23:52:00,56.0,53.0,29.60,North,0,0.0,0.0,90,0.00,,,0.01,,2013-09-21 06:52:00,